GFSFLT2_925_thetae_003.txt.gz
Theta_e
291 292 291 291 292 291 292 292 293 292 292 293 294 295 296 298 298 299 302 304 307 308 311 315 316 318 316
290 290 290 291 291 291 290 291 291 292 292 292 293 295 295 296 298 300 301 304 305 305 307 311 314 316 318
289 289 290 290 290 290 290 290 290 291 291 291 292 293 294 296 297 299 301 302 302 299 306 309 310 313 316
289 289 289 290 289 289 288 288 289 289 289 290 291 292 295 295 294 295 296 298 300 302 304 305 309 310 309
289 289 289 288 288 287 287 287 288 288 289 290 291 292 292 293 293 294 296 297 298 301 303 305 306 306 308
289 288 287 286 286 286 287 288 288 287 288 289 289 291 292 293 293 295 295 297 297 298 300 302 304 305 304
286 285 285 285 286 286 287 286 286 287 288 289 290 291 292 291 291 292 294 295 295 297 300 302 303 304 304
285 284 285 285 285 285 285 286 286 287 287 289 289 290 289 290 289 291 291 293 295 296 296 297 299 300 301
284 284 284 283 283 284 285 286 286 286 286 287 287 287 287 288 288 290 289 290 292 293 294 295 297 299 300
283 282 282 282 283 284 284 285 285 284 284 285 285 286 288 287 288 287 287 288 290 290 291 299 300 301 302
282 282 282 283 283 283 283 283 283 284 284 285 285 286 286 286 287 286 286 288 288 290 296 303 305 305 304
282 282 282 282 282 282 282 282 283 283 284 284 285 286 286 286 285 285 286 286 289 291 293 298 300 302 306
282 282 281 281 281 282 282 283 283 284 285 285 286 286 285 285 284 285 286 289 289 290 291 291 292 296 297
281 281 281 281 281 282 283 283 284 285 285 285 284 283 283 284 285 284 285 289 289 289 290 291 291 292 294
280 280 281 281 281 281 283 284 285 284 283 282 281 282 283 285 286 288 288 288 289 290 290 290 290 291 292
280 280 280 281 281 282 283 285 285 284 283 282 281 281 284 284 284 286 286 287 289 289 290 291 290 291 292
279 280 280 280 281 282 284 284 284 284 283 282 280 280 286 285 283 284 286 286 287 286 287 288 290 290 292

GFSFLT2_925_thetae_006.txt.gz
Theta_e
288 288 288 288 288 288 289 289 290 290 290 290 290 291 292 292 293 294 296 296 297 300 301 303 307 308 312
288 288 287 288 288 288 288 289 289 288 287 288 288 289 290 291 291 292 294 296 298 299 301 302 302 304 307
288 288 288 288 288 288 288 287 286 286 286 287 288 288 290 291 291 292 294 294 294 295 298 299 301 305 308
288 288 287 288 287 287 285 285 285 285 285 287 287 287 288 289 289 291 292 293 293 295 297 298 300 303 305
287 287 287 287 285 284 284 284 284 285 286 284 285 286 287 288 289 290 292 293 293 295 296 298 298 300 303
287 286 285 285 285 284 284 284 286 284 284 284 285 286 287 289 288 291 292 291 292 293 294 296 296 299 301
284 283 284 285 284 284 285 285 284 284 284 285 286 286 286 286 287 289 290 291 290 292 294 295 296 299 301
283 284 284 284 284 283 283 283 283 284 284 285 285 284 284 286 286 286 288 289 292 291 291 293 295 296 297
284 284 282 282 282 283 283 283 283 283 283 283 283 283 284 284 285 286 289 287 287 288 289 291 293 294 295
281 280 281 281 282 282 282 283 282 282 282 282 283 284 284 285 285 285 286 286 286 287 289 290 292 293 294
280 280 281 281 282 281 281 281 281 282 282 283 283 284 284 284 285 286 285 285 284 285 287 290 292 300 297
280 281 281 280 280 280 280 281 281 282 282 283 283 284 285 285 284 284 283 284 285 287 289 291 294 301 300
281 280 280 280 280 280 281 281 282 282 283 284 283 284 283 282 282 282 285 284 286 289 290 290 292 295 298
280 280 279 280 280 280 281 281 282 284 284 283 282 281 282 283 283 284 284 285 288 290 290 291 292 295 298
279 279 279 280 280 280 281 282 283 284 283 283 281 280 281 282 284 286 287 287 289 290 291 291 291 292 295
279 279 279 280 280 281 281 283 282 283 283 282 281 280 283 284 284 285 286 287 287 289 291 292 291 291 293
279 279 279 279 280 281 282 283 282 282 283 282 280 280 282 283 283 286 286 286 288 288 290 291 292 291 291

GFSFLT2_925_thetae_012.txt.gz
Theta_e
287 286 286 286 287 287 287 287 287 286 286 287 287 287 288 288 288 288 289 290 291 292 292 293 294 295 296
286 287 287 287 286 287 287 285 285 284 284 285 286 285 286 286 287 288 288 290 289 290 290 292 293 295 295
286 286 286 287 286 285 284 283 283 283 284 284 284 285 285 287 287 288 286 287 288 289 290 290 291 292 293
286 287 287 286 284 283 283 282 282 283 284 284 283 284 284 284 284 285 285 286 287 288 289 290 290 292 293
286 286 286 284 283 283 282 283 284 282 282 282 282 282 282 283 283 283 284 285 286 288 289 289 290 291 292
287 285 284 283 283 283 283 282 282 282 282 282 282 282 282 282 282 283 284 285 287 287 287 289 290 290 292
283 283 283 283 284 283 282 282 282 282 282 282 282 282 282 282 282 283 284 285 286 287 288 288 289 290 290
282 283 283 282 282 282 282 282 282 281 281 281 281 281 281 281 281 282 284 285 286 287 289 290 290 290 291
283 282 281 281 281 282 281 281 280 280 280 280 280 280 281 281 281 282 284 285 286 287 288 289 289 290 290
279 279 279 279 280 280 280 280 280 280 280 280 281 281 282 282 283 283 282 283 284 285 286 288 289 289 289
279 279 280 280 280 280 280 280 280 280 280 281 282 282 282 282 282 282 281 282 283 283 284 286 287 288 288
279 280 280 279 279 279 279 279 280 280 280 280 281 282 283 283 282 281 281 281 283 284 284 285 286 287 289
280 279 279 279 279 279 279 279 280 280 281 281 282 282 283 283 281 280 281 283 284 286 287 288 289 289 289
279 279 279 279 279 279 279 279 280 281 282 282 283 282 281 280 280 280 282 283 285 287 289 290 291 291 292
278 278 278 279 279 279 280 280 280 282 282 283 283 282 282 281 280 282 283 286 287 289 290 291 291 291 293
278 278 278 279 278 280 280 280 282 282 283 283 282 282 282 283 284 284 287 287 288 290 290 291 291 290 293
277 278 278 278 279 279 280 281 281 283 283 282 282 282 283 284 283 286 287 289 289 290 290 291 291 290 292

GFSFLT2_925_thetae_015.txt.gz
Theta_e
286 286 286 286 286 286 286 286 286 286 286 286 285 286 286 287 288 288 289 289 290 290 291 292 292 293 295
286 285 285 285 285 286 287 285 285 284 284 284 285 286 286 287 287 287 287 288 289 289 290 291 291 292 293
285 285 285 286 285 285 283 283 283 282 283 283 284 285 285 285 285 286 287 287 288 288 288 289 289 290 291
286 286 285 285 285 283 282 282 282 282 283 283 283 283 283 284 284 284 285 285 285 286 287 288 288 289 290
285 285 283 283 282 282 282 282 283 282 281 281 281 281 282 282 282 283 283 284 285 286 287 288 288 289 290
283 283 281 281 282 282 283 282 282 281 281 282 281 281 281 281 281 283 284 285 285 286 286 287 288 289 291
282 281 281 282 283 282 282 282 282 282 281 281 281 280 280 281 281 282 283 284 285 285 286 287 288 288 289
281 282 283 282 282 282 281 282 281 281 280 281 280 280 280 280 281 282 283 284 284 285 286 287 288 289 289
283 281 281 281 281 282 281 280 280 280 280 280 280 280 280 281 281 282 283 284 284 285 286 286 287 288 288
279 278 279 279 280 280 280 280 280 280 280 280 280 281 282 282 282 282 282 282 283 284 285 286 287 288 288
278 279 279 280 279 279 279 280 280 280 280 281 281 280 281 281 282 282 282 282 282 282 283 284 286 287 288
279 279 279 279 279 279 279 279 279 279 280 280 280 281 281 282 282 283 282 282 281 281 282 284 286 287 288
279 279 278 278 278 279 279 279 279 280 280 281 281 281 282 283 282 282 283 283 282 283 285 286 287 287 286
278 278 278 278 278 279 279 279 280 280 281 282 283 283 282 283 281 281 282 283 284 285 288 290 290 290 289
277 277 277 278 278 278 279 279 280 281 282 283 283 283 283 283 282 283 284 287 288 289 289 290 291 291 291
277 277 277 278 278 279 278 279 280 281 282 283 282 282 284 285 285 284 287 289 290 290 290 291 291 291 292
276 276 278 277 278 278 278 279 280 282 283 283 283 283 284 286 285 288 286 290 290 290 290 290 291 290 296

GFSFLT2_925_thetae_018.txt.gz
Theta_e
284 284 285 285 284 284 285 285 285 286 286 287 286 286 286 286 287 288 289 289 290 290 290 291 292 293 294
284 285 284 284 285 285 285 285 285 283 284 284 284 285 285 286 287 287 287 288 288 288 289 290 290 291 292
284 284 284 285 285 284 283 282 282 282 282 283 283 284 284 285 285 286 286 287 287 287 288 289 289 290 291
284 285 285 283 282 281 281 281 282 282 282 282 282 282 283 283 283 284 284 284 285 286 286 287 287 288 289
284 283 283 282 281 281 281 282 282 282 281 281 281 281 281 281 282 282 282 283 284 285 286 287 288 288 288
283 282 281 281 281 282 282 282 282 282 282 282 282 281 281 281 281 282 283 284 285 285 286 287 287 288 289
281 281 281 281 282 282 282 282 282 282 281 281 281 280 280 280 281 282 283 284 284 285 286 287 287 287 288
281 282 283 282 281 282 282 282 281 281 280 281 280 280 280 280 281 282 283 284 284 285 286 286 287 287 287
283 282 281 281 281 282 281 280 280 280 280 280 280 280 280 280 281 282 283 284 284 285 285 286 287 287 288
279 278 278 279 280 280 280 280 280 280 280 280 280 280 281 281 281 281 281 282 283 284 285 286 287 287 287
278 278 279 279 279 279 279 279 279 279 279 280 281 280 280 281 281 282 282 282 283 283 283 284 285 287 287
278 279 278 278 278 278 278 278 279 279 279 279 280 280 281 281 282 283 283 283 283 283 283 283 285 286 287
279 278 277 277 277 277 278 278 278 279 280 280 281 281 282 283 283 283 285 284 284 283 284 284 285 285 286
277 277 277 277 277 277 278 278 279 279 281 281 282 283 283 283 283 283 284 284 286 286 288 289 289 289 289
277 276 277 277 277 277 277 278 278 279 280 282 283 283 283 283 284 285 286 286 289 290 290 290 290 290 290
276 276 276 276 277 278 277 278 278 280 281 283 282 283 284 286 286 285 287 287 289 290 290 290 290 291 291
276 276 277 277 277 277 277 278 279 280 283 282 283 283 284 284 285 288 287 288 289 290 289 289 290 294 297